FW93366 Weather Reports


time (UTC)temp
F
wind
direction
speed
knots
gust
knots
rain 1hr
in
rain 24hr
in
rain mn
in
humidity
%
barometer
mb
20260508060044 51 225 0.0 2.6 0.00 0.00 0.00 68 1021.0
20260508054548 52 150 0.0 7.0 0.00 0.00 0.00 66 1020.9
20260508053039 52 157 2.6 4.3 0.00 0.00 0.00 64 1020.7
20260508051544 55 170 3.5 7.8 0.00 0.00 0.00 58 1020.7
20260508050052 58 188 0.0 2.6 0.00 0.00 0.00 51 1020.7
20260508044546 60 159 1.7 5.2 0.00 0.00 0.00 47 1020.9
20260508043048 63 257 2.6 7.8 0.00 0.00 0.00 43 1020.7
20260508041541 63 295 3.5 7.8 0.00 0.00 0.00 45 1020.5
20260508040044 64 19 0.9 11.3 0.00 0.00 0.00 42 1020.2
20260508034550 64 294 2.6 12.2 0.00 0.00 0.00 40 1019.9
20260508033040 65 315 2.6 10.4 0.00 0.00 0.00 39 1019.7
20260508031545 66 330 0.9 7.0 0.00 0.00 0.00 37 1019.6
20260508030043 67 330 2.6 7.8 0.00 0.00 0.00 34 1019.4
20260508024555 69 318 1.7 8.7 0.00 0.00 0.00 27 1019.2
20260508023046 71 262 6.1 10.4 0.00 0.00 0.00 25 1019.0
20260508021545 71 244 3.5 9.6 0.00 0.00 0.00 26 1018.9
20260508020041 72 211 3.5 10.4 0.00 0.00 0.00 27 1018.9
20260508014547 73 207 3.5 7.8 0.00 0.00 0.00 28 1018.7
20260508013045 74 207 5.2 9.6 0.00 0.00 0.00 26 1018.6
20260508011600 74 250 4.3 11.3 0.00 0.00 0.00 27 1018.5
20260508010043 75 196 6.1 13.0 0.00 0.00 0.00 25 1018.5
20260508004542 75 229 5.2 13.0 0.00 0.00 0.00 25 1018.4
20260508003045 75 192 7.8 13.9 0.00 0.00 0.00 24 1018.5
20260508001545 76 259 7.0 13.9 0.00 0.00 0.00 25 1018.4
20260508000045 76 261 7.0 14.8 0.00 0.00 0.00 24 1018.5
20260507234548 76 203 7.8 13.9 0.00 0.00 0.00 24 1018.5
20260507233040 78 242 3.5 14.8 0.00 0.00 0.00 24 1018.4
20260507231546 77 246 5.2 15.6 0.00 0.00 0.00 23 1018.5
20260507230047 77 203 7.0 15.6 0.00 0.00 0.00 23 1018.5
20260507224545 77 228 6.1 11.3 0.00 0.00 0.00 24 1018.7
20260507223044 77 234 6.1 17.4 0.00 0.00 0.00 28 1018.7
20260507221539 77 245 7.0 13.9 0.00 0.00 0.00 27 1018.8
20260507220046 77 248 7.8 13.9 0.00 0.00 0.00 28 1018.9
20260507214543 77 189 6.1 14.8 0.00 0.00 0.00 25 1019.0
20260507213048 77 195 7.8 14.8 0.00 0.00 0.00 27 1019.0
20260507211547 76 250 7.8 16.5 0.00 0.00 0.00 25 1019.2
20260507210044 77 251 6.1 13.9 0.00 0.00 0.00 28 1019.3
20260507204543 77 249 7.0 16.5 0.00 0.00 0.00 25 1019.3
20260507203046 77 254 4.3 14.8 0.00 0.00 0.00 25 1019.4
20260507201544 76 259 4.3 13.0 0.00 0.00 0.00 25 1019.5
20260507200043 76 261 5.2 13.0 0.00 0.00 0.00 27 1019.7
20260507194541 75 338 3.5 13.0 0.00 0.00 0.00 27 1019.8
20260507193049 75 263 6.1 12.2 0.00 0.00 0.00 27 1020.1
20260507191539 75 104 0.9 8.7 0.00 0.00 0.00 29 1020.1
20260507190046 74 265 3.5 7.0 0.00 0.00 0.00 30 1020.3
20260507184544 74 308 5.2 10.4 0.00 0.00 0.00 31 1020.6
20260507183043 74 306 2.6 7.8 0.00 0.00 0.00 33 1020.6
20260507181547 72 255 0.0 6.1 0.00 0.00 0.00 36 1020.6
20260507180048 71 329 1.7 4.3 0.00 0.00 0.00 37 1020.7
20260507174557 70 347 0.9 6.1 0.00 0.00 0.00 41 1020.7
20260507173046 70 287 0.0 3.5 0.00 0.00 0.00 43 1020.8
20260507171555 67 262 1.7 4.3 0.00 0.00 0.00 47 1020.9
20260507170050 65 0 0.0 5.2 0.00 0.00 0.00 48 1021.0
20260507164545 63 0 0.0 3.5 0.00 0.00 0.00 50 1021.1
20260507163043 62 197 1.7 6.1 0.00 0.00 0.00 50 1021.2
20260507161547 61 0 0.0 2.6 0.00 0.00 0.00 50 1021.1
20260507160044 59 0 0.0 3.5 0.00 0.00 0.00 54 1021.1
20260507154539 57 0 0.0 0.0 0.00 0.00 0.00 57 1021.3
20260507153039 55 0 0.0 0.0 0.00 0.00 0.00 60 1021.3
20260507151544 54 0 0.0 2.6 0.00 0.00 0.00 64 1021.3
20260507150043 52 0 0.0 0.0 0.00 0.00 0.00 64 1021.4
20260507144607 50 0 0.0 0.0 0.00 0.00 0.00 75 1021.5
20260507143048 47 0 0.0 0.0 0.00 0.00 0.00 78 1021.5
20260507141602 46 0 0.0 0.0 0.00 0.00 0.00 79 1021.5
20260507140042 45 0 0.0 0.0 0.00 0.00 0.00 81 1021.4
20260507134544 44 0 0.0 0.0 0.00 0.00 0.00 82 1021.3
20260507133047 43 0 0.0 0.0 0.00 0.00 0.00 82 1021.3
20260507131541 43 0 0.0 0.0 0.00 0.00 0.00 82 1021.2
20260507130039 43 0 0.0 0.0 0.00 0.00 0.00 80 1021.2
20260507124544 44 0 0.0 0.0 0.00 0.00 0.00 79 1021.1
20260507123040 44 0 0.0 0.0 0.00 0.00 0.00 80 1021.0
20260507121542 45 0 0.0 0.0 0.00 0.00 0.00 81 1021.1
20260507120047 45 0 0.0 0.0 0.00 0.00 0.00 82 1021.0
20260507114543 45 0 0.0 0.0 0.00 0.00 0.00 81 1020.9
20260507113041 46 0 0.0 0.0 0.00 0.00 0.00 79 1020.9
20260507111543 45 0 0.0 0.0 0.00 0.00 0.00 80 1020.8
20260507110047 45 0 0.0 0.0 0.00 0.00 0.00 80 1020.9
20260507104546 45 0 0.0 0.0 0.00 0.00 0.00 81 1021.0
20260507103044 45 0 0.0 0.0 0.00 0.00 0.00 81 1020.8
20260507101547 46 0 0.0 0.0 0.00 0.00 0.00 80 1021.0
20260507100043 47 0 0.0 2.6 0.00 0.00 0.00 72 1021.0
20260507094546 47 0 0.0 2.6 0.00 0.00 0.00 70 1021.1
20260507093048 47 9 1.7 4.3 0.00 0.00 0.00 69 1021.3
20260507091544 48 16 0.9 3.5 0.00 0.00 0.00 70 1021.4
20260507090040 50 0 0.0 0.0 0.00 0.00 0.00 69 1021.4
20260507084544 50 0 0.0 0.0 0.00 0.00 0.00 67 1021.4
20260507083039 51 0 0.0 1.7 0.00 0.00 0.00 69 1021.4
20260507081545 51 86 0.0 2.6 0.00 0.00 0.00 67 1021.3
20260507080045 51 0 0.0 0.0 0.00 0.00 0.00 68 1021.3
20260507074541 51 0 0.0 0.0 0.00 0.00 0.00 70 1021.4
20260507073044 51 0 0.0 0.0 0.00 0.00 0.00 71 1021.5
20260507071543 51 0 0.0 0.0 0.00 0.00 0.00 70 1021.5
20260507070046 52 0 0.0 0.0 0.00 0.00 0.00 68 1021.5
20260507064544 52 0 0.0 0.0 0.00 0.00 0.00 68 1021.4
20260507063048 53 0 0.0 0.0 0.00 0.00 0.00 66 1021.3
20260507061542 54 0 0.0 0.0 0.00 0.00 0.00 67 1021.2